Terug naar catalogus

QZS-1R

ActiefNavigatieMEO
NORAD 49336·PAYLOAD·🇯🇵 Japan

Gelanceerd Oct 26, 2021 vanaf Tanegashima Space Center

Loading…

Volgende Passages (komende 24 uur)

TLE

VersSource: CelesTrak SupGP

Epoch: Sep 13, 2026, 00:00 UTC

1 49336C 21096A   26256.00000000 -.00000172  00000+0  00000+0 0  2569
2 49336  37.6435  78.2830 0743679 269.8649 137.9209  1.00288467    11

Volg QZS-1R in realtime met AllMySat

Download on the App Store